Preview of NWS' New Version of Forecast
This preview is not operational and should not be used for support decisions.

Regional Weather Roundup (RWR)

Issued by National Weather Service (NWS)

                            
000
ASPQ40 PGUM 200210
RWRPQ 
WEATHER ROUNDUP FOR THE MARIANAS AND MICRONESIA
NATIONAL WEATHER SERVICE TIYAN GU
1200 PM CHST TUE AUG 20 2019

GUZ001>004-200300-
MARIANA ISLANDS-
  
CITY           SKY/WX    TMP DP  RH WIND       PRES   REMARKS
GUAM AIRPORT   SUNNY     86  75  70 S8        29.84F HX  95           
ANDERSEN AFB   NOT AVBL                                               
ROTA AIRPORT   MOSUNNY   82  73  74 S14       29.81F                  
TINIAN AP      MOSUNNY   86  75  70 S14       29.81F HX  95           
SAIPAN AP      SUNNY     90  79  70 S12       29.82F HX 105           

$$

PMZ161-200300-
REPUBLIC OF PALAU-
  
CITY           SKY/WX    TMP DP  RH WIND       PRES   REMARKS
KOROR AP       PTSUNNY   84  75  74 SW16      29.78F HX  92           
KOROR WSO      NOT AVBL                                               

$$

PMZ171>174-200300-
FEDERATED STATES OF MICRONESIA-
  
CITY           SKY/WX    TMP DP  RH WIND       PRES   REMARKS
YAP AIRPORT    CLOUDY    86  77  74 SW12      29.79F HX  97           
CHUUK AP       PTSUNNY   86  81  84 VRB7      29.80F HX 102           
POHNPEI AP     PTSUNNY   88  79  74 NW6       29.75F HX 102           
POHNPEI WSO    PTSUNNY   91  79  66 NW3       29.78F HX 107           
KOSRAE AP      NOT AVBL                                               

$$

PMZ181-200300-
REPUBLIC OF THE MARSHALL ISLANDS-
  
CITY           SKY/WX    TMP DP  RH WIND       PRES   REMARKS
KWAJALEIN AP   SUNNY     88  77  70 SE6       29.75F HX 100           
MAJURO AP      NOT AVBL                                               
MAJURO WSO     PTSUNNY   84  77  79 SW5       29.74F HX  94           

$$